STARLINK-32271 (60368 NORAD) Tracking and Keplerian Element Data

This shows tracking and keplerian element data for the satellite.

Feedback or suggestion? Click here.




ElementValue
Catalog60368
NameSTARLINK-32271
Epoch Orbit1201
Epoch Day286.73359118
Epoch Year2024
RAAN177.7805
Inclination53.1595
Eccentricity0.0001176
Argument of Perigee85.0829
Mean Anonmoly275.031
Mean Motion15.39669138
Decay Rate4.554E-05
L11 60368U 24138P 24286.73359118 .00004554 00000+0 12358-3 0 9999
L22 60368 53.1595 177.7805 0001176 85.0829 275.0310 15.39669138 12018



Live tracking and technical data element details for STARLINK-32271 (NORAD 60368). STARLINK-32271 can be tracked NOW for your location showing map with azimuth and elevation plus other details from your city location.







IsCatalogInMostPopularTable: catalog: 60368, numindb: 8
Update: records affected: 1



GetName: 60368 STARLINK-32271

Hit Count: updated at: Wed, 04 Dec 2024 19:06:45 GMT